Location: Unspecified
(0.0000°N, 0.0000°E)
Time: 13:34:27
(UTC+00:00)

N. Korean satellite - Visible Passes

Search period start: 25 March 2019 00:00
Search period end: 04 April 2019 00:00
Orbit: 456 x 510 km, 97.2° (Epoch: 24 March)

Date Brightness Start Highest point End Pass type
(mag) Time Alt. Az. Time Alt. Az. Time Alt. Az.
25 Mar 9.5 05:12:05 10° NE 05:14:55 21° ESE 05:17:48 10° SSE visible
25 Mar 9.9 18:33:57 10° SW 18:35:54 14° WSW 18:37:50 10° WNW visible
28 Mar 8.0 05:30:18 10° NNE 05:33:49 44° ESE 05:37:22 10° S visible
29 Mar 9.8 05:06:31 10° ENE 05:09:05 18° ESE 05:11:38 10° SE visible
29 Mar 9.7 18:27:38 10° SW 18:30:01 17° WSW 18:32:21 10° WNW visible
01 Apr 8.5 05:24:31 10° NE 05:27:56 35° E 05:31:22 10° SSE visible
02 Apr 9.9 05:01:03 10° ENE 05:03:10 15° ESE 05:05:18 10° SE visible
